Regional Weather Roundup
Issued by NWS Jackson, KY

Home | Current Version | Previous Version | Text Only | Print | Product List | Glossary On
Versions: 1 2 3 4 5 6 7 8 9 10 11 12 13 14 15 16 17 18 19 20 21 22 23 24 25 26 27 28 29 30 31 32 33 34 35 36 37 38 39 40 41 42 43 44 45 46 47 48 49 50
558
ASUS43 KJKL 281910
RWRJKL

EAST KENTUCKY HOURLY WEATHER ROUNDUP
NATIONAL WEATHER SERVICE JACKSON KY
300 PM EDT TUE MAR 28 2017

NOTE: "FAIR" INDICATES FEW OR NO CLOUDS BELOW 12,000 FEET WITH
NO SIGNIFICANT WEATHER AND/OR OBSTRUCTIONS TO VISIBILITY.

* THESE REPORTS ARE NOT UNDER NWS QUALITY CONTROL AND MAY NOT
  REPORT WEATHER SUCH AS PRECIPITATION AND FOG.

KYZ079-080-083-085-087-088-110-112-115-119-120-282000
...EASTERN KENTUCKY...

CITY           SKY/WX    TMP DP  RH WIND       PRES   REMARKS
JACKSON        CLOUDY    60  52  74 NW7       29.99F
LONDON         CLOUDY    66  51  58 W10       30.00S
SOMERSET*      PTSUNNY   63  52  67 S7        30.01F
MONTICELLO*    CLOUDY    62  53  72 W10G17    30.03F
WILLIAMSBURG*  CLOUDY    63  54  72 NW5       30.00F
MIDDLESBORO*   CLOUDY    65  51  61 W3        30.00S
HARLAN APT*    CLOUDY    63  50  63 SW3       30.00F
PIKE CO APT*   DRIZZLE   58  57  99 CALM      29.99S
BIG SANDY APT* CLOUDY    62  55  79 N6        29.98F
MOREHEAD APT*  CLOUDY    63  54  72 NW9       30.00S
ASHLAND*       CLOUDY    63  55  77 NW5       29.95S
$$

KYZ035-036-041-042-044-050-067-078-099-282000
...CENTRAL KENTUCKY...

CITY           SKY/WX    TMP DP  RH WIND       PRES   REMARKS
MT STERLING*   CLOUDY    61  54  77 NW6       30.00F
FLEMING/MASON* CLOUDY    59  54  83 NW9       30.00S
DANVILLE*      CLOUDY    59  54  82 W3        30.02S
LEXINGTON      CLOUDY    63  54  72 NW7       30.00S
FRANKFORT      CLOUDY    63  52  67 N5        29.99S
LOUISVILLE     PTSUNNY   65  51  60 N9        30.00F
LEBANON*       CLOUDY    59  55  88 SW5       30.01F
GLASGOW*       CLOUDY    63  54  72 W8        30.02S
BOWLING GREEN  CLOUDY    64  55  72 NW7       30.03S
$$

KYZ091>093-OHZ055-061-077-WVZ005-015-034-035-042-282000
...SOUTHERN OHIO/WEST VIRGINIA...

CITY           SKY/WX    TMP DP  RH WIND       PRES   REMARKS
COVINGTON      CLOUDY    60  53  77 NW13      30.01R
COLUMBUS       PTSUNNY   59  50  72 NW13      29.99R
DAYTON         CLOUDY    54  48  80 N10       30.04R
WILMINGTON     CLOUDY    58  52  80 N12       30.00R
HUNTINGTON     CLOUDY    64  54  69 W7        29.96S
CHARLESTON     PTSUNNY   65  53  65 W10G20    29.94S
PINEVILLE*     CLOUDY    62  52  71 MISG      30.02S
BECKLEY        CLOUDY    59  49  69 W8        29.96S
LOGAN CO APT*  CLOUDY    59  54  82 W8        29.97S
$$

VAZ002-007-008-TNZ017-027-036-066-071-282000
...SOUTHWEST VIRGINIA/EAST TENNESSEE...

CITY           SKY/WX    TMP DP  RH WIND       PRES   REMARKS
WISE*          CLOUDY    59  50  72 W9        30.02S
JONESVILLE*    CLOUDY    64  52  63 W6        30.01F
ABINGDON*      CLOUDY    63  54  71 NW9       29.99S
BRISTOL        CLOUDY    67  52  58 W10       29.98S
MORRISTOWN*    CLOUDY    68  54  60 VRB6G14   29.98S
SEVIERVILLE*   MOCLDY    68  54  60 SW8       29.98S
KNOXVILLE      PTSUNNY   69  56  62 SW7       29.98F
LAFOLLETTE*    CLOUDY    68  52  56 VRB5      30.02S
OAK RIDGE      CLOUDY    71  49  45 W6        30.00R
CROSSVILLE     MOSUNNY   64  51  62 W14G22    30.03S
NASHVILLE      PTSUNNY   69  53  56 N8G18     30.02F
$$

...KEY TO REMARKS...
VSB - VISIBILITY IN MILES
WCI - WIND CHILL INDEX
HX  - HEAT INDEX

$$




USA.gov is the U.S. government's official web portal to all federal, state and local government web resources and services.